When you browse on this site, cookies collect data to enhance your experience and personalize the content and advertising you see.
Visit our Privacy Policy to learn more. By continuing to use the site, you agree to this use of cookies and data.
  • In Slovakia
  • List of Countries
  • For 7 days
  • Water Temperature
  • Weather Map
  • Weather Widgets
  • user-avatar
    Login

    Hourly Weather Tivdiya

    Today, 31 March, Tuesday

    Time Temperature Precipitation Wind Pressure Humidity
    00:00 -9°C° 0 mm 2 mps 759 mmHg 86%
    01:00 -9°C° 0 mm 2 mps 759 mmHg 87%
    02:00 -10°C° 0 mm 2 mps 758 mmHg 87%
    03:00 -10°C° 0 mm 2 mps 758 mmHg 88%
    04:00 -9°C° 0 mm 1 mps 758 mmHg 88%
    05:00 -10°C° 0 mm 1 mps 758 mmHg 89%
    06:00 -8°C° 0 mm 1 mps 758 mmHg 85%
    07:00 -8°C° 0 mm 2 mps 757 mmHg 82%
    08:00 -6°C° 0 mm 2 mps 758 mmHg 77%
    09:00 -5°C° 0 mm 2 mps 757 mmHg 71%
    10:00 -4°C° 0 mm 2 mps 756 mmHg 64%
    11:00 -4°C° 0 mm 3 mps 755 mmHg 57%
    12:00 -4°C° 0 mm 3 mps 754 mmHg 56%
    13:00 -4°C° 0 mm 4 mps 754 mmHg 55%
    14:00 -3°C° 0 mm 4 mps 753 mmHg 54%
    15:00 -4°C° 0 mm 4 mps 751 mmHg 56%
    16:00 -4°C° 0 mm 4 mps 750 mmHg 58%
    17:00 -5°C° 0 mm 4 mps 749 mmHg 61%
    18:00 -5°C° 0 mm 4 mps 748 mmHg 67%
    19:00 -6°C° 0 mm 5 mps 747 mmHg 72%
    20:00 -7°C° 0 mm 5 mps 746 mmHg 78%
    21:00 -7°C° 0.2 mm 5 mps 744 mmHg 83%
    22:00 -6°C° 0.2 mm 5 mps 743 mmHg 88%
    23:00 -6°C° 0.2 mm 5 mps 741 mmHg 93%

    Tomorrow, 1 April, Wednesday

    Time Temperature Precipitation Wind Pressure Humidity
    00:00 -6°C° 0.5 mm 5 mps 741 mmHg 93%
    01:00 -6°C° 0.5 mm 5 mps 740 mmHg 94%
    02:00 -5°C° 0.5 mm 4 mps 739 mmHg 94%
    03:00 -4°C° 0.5 mm 4 mps 738 mmHg 94%
    04:00 -4°C° 0.5 mm 4 mps 737 mmHg 95%
    05:00 -4°C° 0.5 mm 3 mps 737 mmHg 96%
    06:00 -2°C° 0.5 mm 3 mps 736 mmHg 95%
    07:00 -2°C° 0.5 mm 3 mps 736 mmHg 94%
    08:00 -1°C° 0.5 mm 3 mps 736 mmHg 93%
    09:00 +1°C° 0.2 mm 2 mps 736 mmHg 90%
    10:00 +1°C° 0.2 mm 2 mps 735 mmHg 87%
    11:00 +2°C° 0.2 mm 2 mps 735 mmHg 84%
    12:00 +2°C° 0.2 mm 2 mps 735 mmHg 82%
    13:00 +2°C° 0.2 mm 2 mps 735 mmHg 80%
    14:00 +2°C° 0.2 mm 2 mps 735 mmHg 78%
    15:00 +2°C° 0.2 mm 2 mps 734 mmHg 83%
    16:00 +2°C° 0.2 mm 1 mps 734 mmHg 87%
    17:00 +2°C° 0.2 mm 1 mps 734 mmHg 92%
    18:00 +1°C° 0.1 mm 1 mps 734 mmHg 93%
    19:00 0°C° 0.1 mm 1 mps 734 mmHg 95%
    20:00 -1°C° 0.1 mm 1 mps 734 mmHg 96%
    21:00 -1°C° 0 mm 1 mps 734 mmHg 96%
    22:00 -2°C° 0 mm 1 mps 734 mmHg 96%
    23:00 -4°C° 0 mm 2 mps 734 mmHg 95%

    Day after tomorrow, 2 April, Thursday

    Time Temperature Precipitation Wind Pressure Humidity
    00:00 -4°C° 0 mm 2 mps 734 mmHg 95%
    01:00 -5°C° 0 mm 2 mps 735 mmHg 95%
    02:00 -5°C° 0 mm 2 mps 735 mmHg 95%
    03:00 -5°C° 0 mm 2 mps 735 mmHg 94%
    04:00 -7°C° 0 mm 3 mps 735 mmHg 93%
    05:00 -8°C° 0 mm 3 mps 735 mmHg 92%
    06:00 -7°C° 0 mm 3 mps 735 mmHg 89%
    07:00 -6°C° 0 mm 3 mps 736 mmHg 86%
    08:00 -6°C° 0 mm 3 mps 736 mmHg 84%
    09:00 -5°C° 0 mm 3 mps 736 mmHg 80%
    10:00 -4°C° 0 mm 3 mps 736 mmHg 77%
    11:00 -2°C° 0 mm 3 mps 736 mmHg 74%
    12:00 -2°C° 0 mm 3 mps 736 mmHg 74%
    13:00 -2°C° 0 mm 4 mps 736 mmHg 74%
    14:00 -2°C° 0 mm 4 mps 736 mmHg 74%
    15:00 -2°C° 0.1 mm 4 mps 735 mmHg 79%
    16:00 -2°C° 0.1 mm 4 mps 734 mmHg 84%
    17:00 -3°C° 0.1 mm 4 mps 734 mmHg 89%
    18:00 -2°C° 0.2 mm 5 mps 733 mmHg 91%
    19:00 -1°C° 0.2 mm 5 mps 732 mmHg 94%
    20:00 -1°C° 0.2 mm 5 mps 732 mmHg 96%
    21:00 -1°C° 0.2 mm 5 mps 731 mmHg 96%
    22:00 -2°C° 0.2 mm 6 mps 730 mmHg 95%
    23:00 -2°C° 0.2 mm 6 mps 730 mmHg 94%

    3 April, Friday

    Time Temperature Precipitation Wind Pressure Humidity
    00:00 -2°C° 0.1 mm 6 mps 729 mmHg 93%
    01:00 -2°C° 0.1 mm 6 mps 728 mmHg 92%
    02:00 -2°C° 0.1 mm 6 mps 728 mmHg 91%
    03:00 -2°C° 0.3 mm 6 mps 727 mmHg 92%
    04:00 -2°C° 0.3 mm 6 mps 726 mmHg 94%
    05:00 -2°C° 0.3 mm 7 mps 726 mmHg 95%
    06:00 -2°C° 1.1 mm 6 mps 726 mmHg 91%
    07:00 -2°C° 1.1 mm 6 mps 726 mmHg 87%
    08:00 -2°C° 1.1 mm 5 mps 727 mmHg 82%
    09:00 -2°C° 0 mm 6 mps 727 mmHg 77%
    10:00 -1°C° 0 mm 6 mps 728 mmHg 72%
    11:00 +1°C° 0 mm 6 mps 728 mmHg 66%
    12:00 +1°C° 0.1 mm 6 mps 728 mmHg 67%
    13:00 +1°C° 0.1 mm 6 mps 728 mmHg 68%
    14:00 +1°C° 0.1 mm 6 mps 728 mmHg 68%
    15:00 +1°C° 0.2 mm 6 mps 728 mmHg 73%
    16:00 0°C° 0.2 mm 5 mps 728 mmHg 77%
    17:00 0°C° 0.2 mm 5 mps 728 mmHg 82%
    18:00 -1°C° 0 mm 4 mps 729 mmHg 84%
    19:00 -2°C° 0 mm 4 mps 730 mmHg 86%
    20:00 -1°C° 0 mm 3 mps 730 mmHg 88%
    21:00 -2°C° 0 mm 3 mps 731 mmHg 89%
    22:00 -2°C° 0 mm 3 mps 732 mmHg 90%
    23:00 -4°C° 0 mm 3 mps 733 mmHg 91%

    4 April, Saturday

    Time Temperature Precipitation Wind Pressure Humidity
    00:00 -4°C° 0 mm 3 mps 734 mmHg 89%
    01:00 -5°C° 0 mm 4 mps 735 mmHg 87%
    02:00 -5°C° 0 mm 4 mps 736 mmHg 85%
    03:00 -5°C° 0 mm 4 mps 736 mmHg 83%
    04:00 -5°C° 0 mm 4 mps 737 mmHg 82%
    05:00 -7°C° 0 mm 4 mps 738 mmHg 81%
    06:00 -5°C° 0 mm 4 mps 738 mmHg 77%
    07:00 -5°C° 0 mm 5 mps 739 mmHg 74%
    08:00 -4°C° 0 mm 5 mps 740 mmHg 71%
    09:00 -4°C° 0.1 mm 6 mps 740 mmHg 67%
    10:00 -3°C° 0.1 mm 6 mps 741 mmHg 63%
    11:00 -2°C° 0.1 mm 6 mps 741 mmHg 59%
    12:00 -2°C° 0.1 mm 6 mps 742 mmHg 57%
    13:00 -2°C° 0.1 mm 6 mps 743 mmHg 55%
    14:00 -1°C° 0.1 mm 6 mps 743 mmHg 53%
    15:00 -1°C° 0 mm 5 mps 744 mmHg 55%
    16:00 -1°C° 0 mm 4 mps 744 mmHg 58%
    17:00 -2°C° 0 mm 4 mps 745 mmHg 60%
    18:00 -2°C° 0 mm 4 mps 745 mmHg 63%
    19:00 -3°C° 0 mm 4 mps 746 mmHg 66%
    20:00 -4°C° 0 mm 4 mps 747 mmHg 70%
    21:00 -4°C° 0 mm 4 mps 747 mmHg 70%
    22:00 -5°C° 0 mm 4 mps 748 mmHg 70%
    23:00 -5°C° 0 mm 4 mps 748 mmHg 71%

    5 April, Sunday

    Time Temperature Precipitation Wind Pressure Humidity
    00:00 -6°C° 0 mm 5 mps 749 mmHg 70%
    01:00 -6°C° 0 mm 5 mps 749 mmHg 70%
    02:00 -6°C° 0 mm 5 mps 750 mmHg 69%
    03:00 -7°C° 0 mm 5 mps 751 mmHg 73%
    04:00 -8°C° 0 mm 6 mps 752 mmHg 77%
    05:00 -8°C° 0 mm 6 mps 752 mmHg 81%
    06:00 -6°C° 0 mm 6 mps 754 mmHg 79%
    07:00 -6°C° 0 mm 6 mps 755 mmHg 77%
    08:00 -5°C° 0 mm 6 mps 756 mmHg 75%
    09:00 -4°C° 0 mm 6 mps 757 mmHg 73%
    10:00 -4°C° 0 mm 5 mps 758 mmHg 70%
    11:00 -2°C° 0 mm 5 mps 759 mmHg 68%
    12:00 -1°C° 0 mm 5 mps 760 mmHg 65%
    13:00 -1°C° 0 mm 4 mps 761 mmHg 62%
    14:00 0°C° 0 mm 4 mps 762 mmHg 58%
    15:00 0°C° 0 mm 3 mps 762 mmHg 59%
    16:00 0°C° 0 mm 3 mps 763 mmHg 60%
    17:00 +1°C° 0 mm 2 mps 763 mmHg 61%
    18:00 -1°C° 0 mm 2 mps 763 mmHg 64%
    19:00 -2°C° 0 mm 2 mps 764 mmHg 67%
    20:00 -3°C° 0 mm 2 mps 764 mmHg 70%
    21:00 -2°C° 0 mm 2 mps 764 mmHg 69%
    22:00 -2°C° 0 mm 2 mps 764 mmHg 69%
    23:00 -2°C° 0 mm 3 mps 764 mmHg 68%
    Show more